CW2969 Weather Reports


time (UTC)temp
F
wind
direction
speed
knots
gust
knots
rain 1hr
in
rain 24hr
in
rain mn
in
humidity
%
barometer
mb
20260510194010 87 175 1.7 7.0 0.00 0.24 0.00 66 1011.4
20260510193510 87 209 4.3 7.0 0.00 0.24 0.00 68 1011.4
20260510193009 87 111 0.0 7.8 0.00 0.24 0.00 67 1011.5
20260510192509 87 251 2.6 7.8 0.00 0.24 0.00 67 1011.6
20260510192010 86 250 3.5 6.1 0.00 0.24 0.00 68 1011.7
20260510191510 86 245 0.9 6.1 0.00 0.24 0.00 68 1011.7
20260510191009 86 321 0.0 8.7 0.00 0.24 0.00 69 1011.7
20260510190010 85 227 1.7 7.8 0.00 0.24 0.00 70 1011.7
20260510185509 85 142 7.8 7.8 0.00 0.24 0.00 70 1011.7
20260510185009 85 171 0.9 6.1 0.00 0.24 0.00 70 1011.8
20260510184509 85 119 3.5 8.7 0.00 0.24 0.00 70 1011.9
20260510183509 85 110 2.6 7.8 0.00 0.24 0.00 71 1011.9
20260510183009 84 166 7.8 7.8 0.00 0.24 0.00 71 1012.1
20260510182509 84 112 6.1 9.6 0.00 0.24 0.00 72 1012.2
20260510182009 84 152 6.1 9.6 0.00 0.24 0.00 72 1012.4
20260510181509 83 114 7.8 7.8 0.00 0.24 0.00 73 1012.4
20260510181009 83 154 5.2 7.8 0.00 0.24 0.00 74 1012.4
20260510180509 83 217 2.6 7.8 0.00 0.24 0.00 74 1012.5
20260510180009 83 130 6.1 7.8 0.00 0.24 0.00 74 1012.6
20260510175509 82 76 1.7 10.4 0.00 0.24 0.00 74 1012.7
20260510174509 82 65 0.9 8.7 0.00 0.24 0.00 75 1012.9
20260510174009 81 104 3.5 5.2 0.00 0.24 0.00 75 1012.9
20260510173009 81 82 1.7 8.7 0.00 0.24 0.00 76 1013.1
20260510172508 81 98 5.2 8.7 0.00 0.24 0.00 76 1013.1
20260510171509 80 112 1.7 7.0 0.00 0.24 0.00 76 1013.2
20260510171008 80 82 4.3 7.0 0.00 0.24 0.00 76 1013.3
20260510170508 80 311 1.7 8.7 0.00 0.24 0.00 77 1013.4
20260510170008 80 121 1.7 8.7 0.00 0.24 0.00 77 1013.5
20260510165509 80 134 1.7 7.8 0.00 0.24 0.00 77 1013.5
20260510165009 79 169 7.8 10.4 0.00 0.24 0.00 77 1013.5
20260510164508 79 126 4.3 10.4 0.00 0.24 0.00 77 1013.6
20260510164008 79 107 3.5 6.1 0.00 0.24 0.00 77 1013.6
20260510163508 79 121 6.1 6.1 0.00 0.24 0.00 77 1013.6
20260510163008 79 20 0.9 7.0 0.00 0.24 0.00 78 1013.5
20260510162508 79 74 2.6 8.7 0.00 0.24 0.00 78 1013.5
20260510162008 79 328 0.9 8.7 0.00 0.24 0.00 78 1013.5
20260510161508 79 263 0.9 11.3 0.00 0.24 0.00 78 1013.5
20260510161007 79 82 7.8 11.3 0.00 0.24 0.00 78 1013.4
20260510160508 79 97 7.0 7.0 0.00 0.24 0.00 78 1013.4
20260510160007 79 113 1.7 7.0 0.00 0.24 0.00 78 1013.4
20260510155508 79 320 0.0 7.8 0.00 0.24 0.00 78 1013.4
20260510155007 78 344 2.6 7.8 0.00 0.24 0.00 78 1013.4
20260510154507 78 119 2.6 2.6 0.00 0.24 0.00 79 1013.3
20260510154007 78 206 2.6 6.1 0.00 0.24 0.00 79 1013.3
20260510153507 78 86 2.6 8.7 0.00 0.24 0.00 79 1013.3
20260510153007 78 108 8.7 8.7 0.00 0.24 0.00 79 1013.3
20260510152508 78 165 3.5 7.0 0.00 0.24 0.00 79 1013.3
20260510152037 78 109 6.1 6.1 0.00 0.24 0.00 79 1013.2
20260510151537 78 126 0.9 6.1 0.00 0.24 0.00 79 1013.2
20260510151037 78 134 2.6 6.1 0.00 0.24 0.00 79 1013.3
20260510150537 78 140 2.6 6.1 0.00 0.24 0.00 79 1013.2
20260510145036 78 115 0.9 3.5 0.00 0.24 0.00 79 1013.2
20260510144036 77 73 2.6 5.2 0.00 0.24 0.00 80 1012.8
20260510143036 76 105 2.6 4.3 0.00 0.24 0.00 80 1012.9
20260510142536 76 137 3.5 5.2 0.00 0.24 0.00 80 1012.8
20260510142036 76 138 2.6 5.2 0.00 0.24 0.00 80 1012.7
20260510141036 76 140 0.0 5.2 0.00 0.24 0.00 80 1012.6
20260510140536 75 117 0.9 5.2 0.00 0.24 0.00 80 1012.6
20260510135536 75 96 0.0 0.9 0.00 0.25 0.00 80 1012.4
20260510135036 75 94 0.0 3.5 0.00 0.25 0.00 81 1012.4
20260510133536 74 121 0.0 2.6 0.00 0.25 0.00 81 1012.3
20260510133036 74 78 0.9 4.3 0.00 0.25 0.00 81 1012.2
20260510132036 73 117 0.0 0.9 0.00 0.25 0.00 81 1011.9
20260510131036 73 153 0.9 1.7 0.00 0.25 0.00 81 1011.8
20260510130536 72 116 0.0 2.6 0.00 0.25 0.00 81 1011.5
20260510125036 71 121 0.0 2.6 0.00 0.25 0.00 82 1011.3
20260510124536 71 121 0.9 2.6 0.00 0.25 0.00 81 1011.3
20260510124036 71 127 0.0 0.0 0.00 0.25 0.00 82 1011.2
20260510123535 70 127 0.0 0.0 0.00 0.25 0.00 82 1011.2
20260510122535 70 127 0.0 0.0 0.00 0.25 0.00 82 1011.1
20260510122035 70 127 0.0 0.0 0.00 0.25 0.00 82 1011.0
20260510121535 70 127 0.0 0.0 0.00 0.25 0.00 82 1010.8
20260510121035 70 127 0.0 0.9 0.00 0.25 0.00 82 1010.7
20260510120535 70 127 0.9 0.9 0.00 0.25 0.00 82 1010.7
20260510120035 70 127 0.0 0.0 0.00 0.25 0.00 82 1010.6
20260510115535 70 127 0.0 0.9 0.00 0.25 0.00 82 1010.7
20260510115035 70 127 0.0 1.7 0.00 0.25 0.00 82 1010.5
20260510114535 70 127 0.9 1.7 0.00 0.25 0.00 82 1010.5
20260510113535 70 127 0.0 0.9 0.00 0.25 0.00 82 1010.4
20260510113035 70 127 0.0 1.7 0.00 0.25 0.00 82 1010.4
20260510112535 70 128 1.7 1.7 0.00 0.25 0.00 82 1010.3
20260510112035 70 221 0.0 0.9 0.00 0.25 0.00 82 1010.1
20260510111535 70 190 0.0 0.9 0.00 0.25 0.00 82 1010.1
20260510111035 70 260 0.0 0.9 0.00 0.25 0.00 82 1010.2
20260510110534 70 260 0.0 2.6 0.00 0.25 0.00 82 1010.2
20260510110035 70 205 0.9 3.5 0.00 0.25 0.00 82 1009.9
20260510105535 70 187 2.6 3.5 0.00 0.25 0.00 82 1009.8
20260510105034 70 231 1.7 2.6 0.00 0.25 0.00 82 1009.7
20260510104534 70 190 2.6 7.0 0.00 0.25 0.00 82 1009.7
20260510104034 70 211 0.9 7.0 0.00 0.25 0.00 82 1009.6
20260510103034 70 272 0.9 4.3 0.00 0.25 0.00 82 1009.6
20260510102534 70 197 0.9 4.3 0.00 0.25 0.00 82 1009.6
20260510101534 70 223 0.9 0.9 0.00 0.25 0.00 82 1009.8
20260510101034 70 219 0.0 1.7 0.00 0.25 0.00 81 1009.8
20260510100534 70 222 0.9 3.5 0.00 0.25 0.00 81 1009.8
20260510100034 70 246 0.0 5.2 0.00 0.25 0.00 82 1009.6
20260510095534 70 167 0.9 5.2 0.00 0.25 0.00 82 1009.5
20260510095034 70 188 1.7 2.6 0.00 0.25 0.00 82 1009.6
20260510094534 70 236 0.0 5.2 0.00 0.25 0.00 82 1009.7
20260510094034 70 207 5.2 5.2 0.00 0.25 0.00 82 1009.7
20260510093534 70 232 1.7 2.6 0.00 0.25 0.00 82 1009.7
20260510093034 70 182 0.9 1.7 0.00 0.25 0.00 82 1009.7
20260510092534 70 219 0.0 1.7 0.00 0.25 0.00 82 1009.7
20260510092034 70 265 0.0 3.5 0.00 0.25 0.00 82 1009.7
20260510091534 70 221 0.9 4.3 0.00 0.25 0.00 82 1009.7
20260510090034 70 150 0.9 2.6 0.00 0.26 0.00 82 1009.7
20260510085534 70 129 0.0 0.0 0.00 0.26 0.00 82 1009.6
20260510085033 70 187 0.0 0.0 0.00 0.26 0.00 82 1009.6
20260510084534 70 263 0.0 0.0 0.00 0.26 0.00 82 1009.7
20260510084034 70 167 0.0 0.0 0.00 0.27 0.00 82 1009.7
20260510083533 70 167 0.0 0.0 0.00 0.27 0.00 82 1009.7
20260510082533 70 167 0.0 0.0 0.00 0.27 0.00 81 1009.6
20260510082033 70 167 0.0 0.0 0.00 0.27 0.00 81 1009.7
20260510081533 70 167 0.0 0.0 0.00 0.27 0.00 81 1009.7
20260510081033 70 167 0.0 0.0 0.00 0.27 0.00 81 1009.8
20260510080533 70 167 0.0 0.0 0.00 0.27 0.00 81 1009.8
20260510080033 70 167 0.0 0.0 0.00 0.27 0.00 81 1009.8
20260510075533 70 167 0.0 0.0 0.00 0.27 0.00 81 1010.1
20260510075033 70 167 0.0 0.0 0.00 0.27 0.00 81 1010.0
20260510074033 70 167 0.0 0.0 0.00 0.27 0.00 81 1010.0
20260510073533 70 167 0.0 0.0 0.00 0.27 0.00 81 1010.0
20260510072533 70 167 0.0 0.0 0.00 0.27 0.00 81 1010.0
20260510072033 70 167 0.0 0.0 0.00 0.27 0.00 80 1010.1
20260510071033 71 167 0.0 0.0 0.00 0.27 0.00 80 1010.2
20260510070533 71 167 0.0 0.0 0.00 0.27 0.00 80 1010.2
20260510065533 71 237 0.0 0.0 0.00 0.27 0.00 80 1010.1
20260510065032 71 237 0.0 0.0 0.00 0.27 0.00 80 1010.1
20260510064533 71 237 0.0 0.0 0.00 0.27 0.00 80 1010.0
20260510064032 71 237 0.0 0.0 0.00 0.27 0.00 80 1010.0
20260510063532 71 237 0.0 0.0 0.00 0.27 0.00 80 1009.9
20260510062532 71 237 0.0 0.0 0.00 0.27 0.00 80 1010.0
20260510062032 71 237 0.0 0.0 0.00 0.27 0.00 79 1009.9
20260510061532 71 237 0.0 0.0 0.00 0.27 0.00 79 1009.9
20260510061032 72 237 0.0 0.0 0.00 0.27 0.00 79 1009.8
20260510060532 72 215 0.0 0.9 0.00 0.27 0.00 79 1009.8
20260510060032 72 171 0.0 0.9 0.00 0.27 0.00 79 1009.9
20260510055532 72 145 0.0 0.0 0.00 0.27 0.00 79 1009.6
20260510054531 72 145 0.0 3.5 0.00 0.27 0.00 79 1009.6
20260510053531 72 121 0.0 3.5 0.00 0.27 0.00 79 1009.7
20260510053031 72 142 2.6 3.5 0.00 0.27 0.00 80 1009.8
20260510052531 72 111 1.7 1.7 0.00 0.27 0.00 80 1009.9
20260510052031 72 111 0.0 0.0 0.00 0.27 0.00 80 1009.9
20260510051031 72 111 0.0 0.0 0.00 0.27 0.00 80 1009.8
20260510050531 72 111 0.0 0.0 0.00 0.27 0.00 80 1009.8
20260510050031 73 111 0.0 0.0 0.00 0.27 0.00 80 1009.8
20260510045531 73 111 0.0 0.0 0.00 0.27 0.27 80 1009.6
20260510045031 73 111 0.0 0.0 0.00 0.27 0.27 80 1009.6
20260510044531 73 111 0.0 0.0 0.00 0.27 0.27 79 1009.5
20260510044031 73 111 0.0 0.0 0.00 0.27 0.27 79 1009.6
20260510043531 74 111 0.0 0.0 0.00 0.27 0.27 79 1009.7
20260510043031 74 111 0.0 0.0 0.00 0.27 0.27 79 1009.6
20260510042530 74 111 0.0 0.0 0.00 0.27 0.27 79 1009.6
20260510042030 74 111 0.0 1.7 0.00 0.27 0.27 79 1009.6
20260510041030 74 111 0.0 0.0 0.00 0.27 0.27 79 1009.5
20260510040530 75 111 0.0 0.0 0.00 0.27 0.27 79 1009.5
20260510040030 75 111 0.0 0.0 0.00 0.27 0.27 78 1009.5
20260510035030 76 111 0.0 0.0 0.00 0.27 0.27 78 1009.2
20260510034530 76 111 0.0 0.0 0.00 0.27 0.27 78 1009.2
20260510034030 76 111 0.0 0.0 0.00 0.27 0.27 77 1009.1
20260510033530 76 111 0.0 0.0 0.00 0.27 0.27 77 1009.1
20260510033030 77 111 0.0 0.0 0.00 0.27 0.27 77 1009.1
20260510032530 77 111 0.0 0.0 0.00 0.27 0.27 77 1009.1
20260510032030 77 111 0.0 0.0 0.00 0.27 0.27 77 1009.0
20260510031530 77 111 0.0 0.0 0.00 0.27 0.27 76 1008.9
20260510030530 78 111 0.0 0.0 0.00 0.27 0.27 76 1008.7
20260510030030 78 111 0.0 0.0 0.00 0.27 0.27 75 1008.6
20260510025530 78 111 0.0 0.0 0.00 0.27 0.27 75 1008.5
20260510025029 79 111 0.0 0.0 0.00 0.27 0.27 75 1008.4
20260510024530 79 111 0.0 0.0 0.00 0.27 0.27 75 1008.3
20260510024029 79 111 0.0 0.0 0.00 0.27 0.27 75 1008.3
20260510023530 80 111 0.0 0.9 0.00 0.27 0.27 74 1008.4
20260510023029 80 111 0.0 1.7 0.00 0.27 0.27 74 1008.3
20260510021529 81 128 0.0 0.9 0.00 0.27 0.27 73 1008.3
20260510021029 81 128 0.0 0.0 0.00 0.27 0.27 73 1008.2
20260510020029 82 128 0.0 3.5 0.00 0.27 0.27 73 1008.0
20260510015529 82 128 0.9 3.5 0.00 0.27 0.27 73 1007.9
20260510015029 82 155 0.0 0.9 0.00 0.27 0.27 72 1007.9
20260510014029 83 140 4.3 6.1 0.00 0.27 0.27 72 1007.8
20260510012529 83 134 2.6 3.5 0.00 0.27 0.27 71 1007.6
20260510011529 84 108 0.0 3.5 0.00 0.27 0.27 70 1007.5
20260510010028 85 143 0.0 1.7 0.00 0.27 0.27 69 1007.4
20260510005528 86 143 0.9 1.7 0.00 0.27 0.27 69 1007.5
20260510005028 86 133 0.0 0.0 0.00 0.27 0.27 69 1007.5
20260510004528 86 133 0.0 0.0 0.00 0.27 0.27 68 1007.5
20260510004028 87 90 0.0 0.0 0.00 0.27 0.27 69 1007.4
20260510002528 87 153 0.0 0.9 0.00 0.27 0.27 67 1007.3
20260510002028 87 105 0.0 2.6 0.00 0.27 0.27 68 1007.2
20260510001528 87 94 0.9 2.6 0.00 0.27 0.27 67 1007.3
20260510001028 87 119 0.0 2.6 0.00 0.27 0.27 67 1007.2
20260510000528 87 119 0.9 2.6 0.00 0.27 0.27 68 1007.2
20260510000028 87 127 0.0 0.9 0.00 0.27 0.27 66 1007.2
20260509235528 87 113 0.0 0.0 0.00 0.27 0.27 66 1007.1
20260509235028 87 115 0.0 1.7 0.00 0.27 0.27 67 1007.1
20260509234528 87 116 0.0 1.7 0.00 0.27 0.27 65 1007.0
20260509234027 87 139 0.0 2.6 0.00 0.27 0.27 66 1007.0
20260509233527 87 97 0.9 2.6 0.00 0.27 0.27 66 1006.9
20260509233027 87 123 0.0 2.6 0.00 0.27 0.27 66 1006.9
20260509232528 87 101 0.0 2.6 0.00 0.27 0.27 65 1006.9
20260509232027 87 119 0.0 2.6 0.00 0.27 0.27 66 1006.9
20260509230527 86 347 0.0 2.6 0.00 0.27 0.27 65 1007.0
20260509225527 86 117 1.7 3.5 0.00 0.27 0.27 65 1006.9
20260509225027 86 107 3.5 3.5 0.00 0.27 0.27 63 1006.9
20260509224527 86 156 1.7 1.7 0.00 0.27 0.27 64 1007.0
20260509224027 86 118 0.0 2.6 0.00 0.27 0.27 64 1006.9
20260509223527 86 95 0.0 5.2 0.00 0.27 0.27 64 1006.9
20260509223027 86 101 5.2 5.2 0.00 0.27 0.27 65 1006.9
20260509222527 86 107 0.0 2.6 0.00 0.27 0.27 65 1006.9
20260509222027 85 144 0.0 3.5 0.00 0.27 0.27 65 1006.8
20260509221527 85 96 1.7 5.2 0.00 0.27 0.27 64 1006.9
20260509221027 84 103 2.6 5.2 0.00 0.27 0.27 65 1006.7
20260509220527 83 116 0.9 1.7 0.00 0.27 0.27 66 1006.6
20260509220027 83 173 0.0 2.6 0.00 0.27 0.27 68 1006.6
20260509215527 82 229 1.7 2.6 0.00 0.27 0.27 69 1006.8
20260509215027 81 202 0.9 4.3 0.00 0.27 0.27 71 1006.8
20260509214026 78 251 0.9 1.7 0.00 0.27 0.27 73 1006.9
20260509213527 77 132 0.9 3.5 0.00 0.27 0.27 74 1007.0
20260509213027 76 215 2.6 3.5 0.00 0.27 0.27 75 1007.1
20260509212526 75 195 1.7 7.0 0.01 0.27 0.27 75 1007.0
20260509212027 74 178 1.7 7.0 0.03 0.27 0.27 76 1007.0
20260509211526 73 119 0.9 6.1 0.07 0.27 0.27 77 1007.2
20260509210027 73 232 0.9 4.3 0.24 0.27 0.27 79 1007.2
20260509205526 73 45 0.0 0.9 0.24 0.27 0.27 80 1007.2
20260509205026 72 183 0.0 2.6 0.24 0.27 0.27 80 1007.2
20260509204526 71 125 1.7 8.7 0.24 0.27 0.27 79 1007.1
20260509204026 72 130 6.1 8.7 0.24 0.27 0.27 78 1007.4
20260509203526 72 302 0.9 6.1 0.24 0.27 0.27 78 1007.5
20260509203026 73 230 0.9 6.1 0.24 0.27 0.27 76 1007.6
20260509202526 75 160 3.5 6.1 0.23 0.26 0.26 75 1007.9
20260509202026 77 135 0.0 8.7 0.21 0.24 0.24 72 1008.7
20260509201526 80 130 3.5 9.6 0.17 0.20 0.20 68 1008.7
20260509201025 84 115 5.2 9.6 0.06 0.09 0.09 71 1009.1
20260509200526 87 24 1.7 9.6 0.00 0.03 0.03 66 1008.5
20260509200026 88 5 2.6 3.5 0.00 0.03 0.03 66 1008.3
20260509195526 89 101 2.6 3.5 0.00 0.03 0.03 67 1008.0
20260509195025 89 122 0.0 7.0 0.00 0.03 0.03 68 1007.9
20260509194525 89 155 1.7 7.0 0.00 0.03 0.03 68 1007.8